Le nostre stazioni meteo in Italia

Pubblicità
Il mio iltempo24.it
Achnagart, Gran Bretagna (99191): Temperatura & dewpoint: 13.08.2018 09:00:00 - 19.08.2018 09:00:00 (BST)Achnagart, Gran Bretagna (99191): precipitazioni: 13.08.2018 09:00:00 - 19.08.2018 09:00:00 (BST)
Data & Tempo tt [°C] td [°C] rr [mm]
19.08.2018 09:00:00 12,7 11,5 -
19.08.2018 08:00:00 10,9 10,6 -
19.08.2018 07:00:00 - - -
19.08.2018 06:00:00 - - -
19.08.2018 05:00:00 - - -
19.08.2018 04:00:00 10,6 10,1 0,0
19.08.2018 03:00:00 10,8 10,1 0,0
19.08.2018 02:00:00 11,0 10,3 0,0
19.08.2018 01:00:00 10,8 10,1 0,0
19.08.2018 00:00:00 10,7 10,0 0,0
18.08.2018 23:00:00 9,9 8,6 0,0
18.08.2018 22:00:00 11,5 9,7 0,0
18.08.2018 21:00:00 13,0 8,9 0,0
18.08.2018 20:00:00 14,1 8,5 0,0
18.08.2018 19:00:00 14,7 7,8 0,0
18.08.2018 18:00:00 15,0 8,4 0,0
18.08.2018 17:00:00 15,1 8,8 0,0
18.08.2018 16:00:00 15,1 9,3 0,0
18.08.2018 15:00:00 15,4 9,0 0,0
18.08.2018 14:00:00 16,0 9,4 0,0
18.08.2018 13:00:00 15,1 10,1 0,0
18.08.2018 12:00:00 14,5 8,4 0,0
18.08.2018 11:00:00 15,1 8,6 0,0
18.08.2018 10:00:00 14,7 9,1 0,0
18.08.2018 09:00:00 14,8 8,5 0,0
18.08.2018 08:00:00 14,4 9,4 0,0
18.08.2018 07:00:00 14,0 9,5 1,0
18.08.2018 06:00:00 13,3 10,9 1,4
18.08.2018 05:00:00 14,1 9,7 0,2
18.08.2018 04:00:00 14,1 9,9 0,2
18.08.2018 03:00:00 14,7 9,4 0,0
18.08.2018 02:00:00 14,9 9,7 0,0
18.08.2018 01:00:00 15,0 8,7 0,0
18.08.2018 00:00:00 14,3 9,9 0,0
17.08.2018 23:00:00 14,1 9,9 0,0
17.08.2018 22:00:00 15,0 9,5 0,0
17.08.2018 21:00:00 15,0 10,5 0,0
17.08.2018 20:00:00 15,0 10,2 0,0
17.08.2018 19:00:00 14,5 11,4 0,2
17.08.2018 18:00:00 15,6 12,8 0,2
17.08.2018 17:00:00 15,2 13,3 1,0
17.08.2018 16:00:00 15,2 13,2 1,2
17.08.2018 15:00:00 14,9 12,8 1,0
17.08.2018 14:00:00 13,1 12,3 1,2
17.08.2018 13:00:00 13,6 12,0 0,8
17.08.2018 12:00:00 13,5 11,5 0,8
17.08.2018 11:00:00 13,6 11,2 0,6
17.08.2018 10:00:00 13,2 10,5 0,4
17.08.2018 09:00:00 12,2 10,5 0,6
17.08.2018 08:00:00 12,3 9,5 0,2
17.08.2018 07:00:00 11,6 9,3 0,0
17.08.2018 06:00:00 12,0 8,7 0,0
17.08.2018 05:00:00 12,3 9,0 0,2
17.08.2018 04:00:00 11,8 9,3 0,2
17.08.2018 03:00:00 12,2 9,8 2,0
17.08.2018 02:00:00 12,4 9,9 0,2
17.08.2018 01:00:00 12,3 10,0 3,2
17.08.2018 00:00:00 12,3 9,3 0,4
16.08.2018 23:00:00 12,8 9,1 0,2
16.08.2018 22:00:00 12,8 9,1 0,4
16.08.2018 21:00:00 11,6 10,0 0,2
16.08.2018 20:00:00 12,2 9,6 0,6
16.08.2018 19:00:00 12,5 10,0 -
16.08.2018 18:00:00 13,9 10,0 0,2
16.08.2018 17:00:00 12,9 10,7 1,2
16.08.2018 16:00:00 14,9 11,1 0,6
16.08.2018 15:00:00 - - 0,2
16.08.2018 14:00:00 - - 0,2
16.08.2018 13:00:00 - - 1,2
16.08.2018 12:00:00 - - 0,6
16.08.2018 11:00:00 - - 2,6
16.08.2018 10:00:00 - - 3,8
16.08.2018 09:00:00 - - 0,8
16.08.2018 08:00:00 - - 0,6
16.08.2018 07:00:00 - - 2,0
16.08.2018 06:00:00 - - 1,8
16.08.2018 05:00:00 - - 0,0
16.08.2018 04:00:00 - - 0,2
16.08.2018 03:00:00 - - 0,0
16.08.2018 02:00:00 - - 0,0
16.08.2018 01:00:00 12,6 8,5 0,0
16.08.2018 00:00:00 12,2 9,4 0,0
15.08.2018 23:00:00 13,3 8,8 0,0
15.08.2018 22:00:00 13,6 9,4 0,0
15.08.2018 21:00:00 13,8 11,2 1,2
15.08.2018 20:00:00 14,5 10,9 1,4
15.08.2018 19:00:00 14,3 10,4 0,4
15.08.2018 18:00:00 15,4 8,9 0,0
15.08.2018 17:00:00 15,2 9,8 0,0
15.08.2018 16:00:00 15,0 9,9 0,2
15.08.2018 15:00:00 14,2 10,2 2,0
15.08.2018 14:00:00 15,1 10,5 0,0
15.08.2018 13:00:00 15,7 11,3 0,2
15.08.2018 12:00:00 15,8 11,3 0,2
15.08.2018 11:00:00 15,4 11,1 0,0
15.08.2018 10:00:00 15,4 13,2 0,2
15.08.2018 09:00:00 15,6 13,9 0,4
15.08.2018 08:00:00 15,5 14,4 1,2
15.08.2018 07:00:00 14,6 14,4 1,6
15.08.2018 06:00:00 13,8 13,6 0,6
15.08.2018 05:00:00 13,9 13,4 1,6
15.08.2018 04:00:00 13,9 13,2 0,4
15.08.2018 03:00:00 15,3 12,6 0,0
15.08.2018 02:00:00 14,0 11,9 0,0
15.08.2018 01:00:00 14,5 11,8 0,0
15.08.2018 00:00:00 13,6 11,9 0,0
14.08.2018 23:00:00 14,2 10,4 0,0
14.08.2018 22:00:00 14,3 11,0 0,0
14.08.2018 21:00:00 14,8 10,6 0,0
14.08.2018 20:00:00 15,4 11,5 0,0
14.08.2018 19:00:00 16,1 12,3 0,0
14.08.2018 18:00:00 16,9 13,4 0,0
14.08.2018 17:00:00 16,9 13,4 0,0
14.08.2018 16:00:00 17,4 14,8 0,2
14.08.2018 15:00:00 16,9 15,7 1,0
14.08.2018 14:00:00 16,8 14,9 1,2
14.08.2018 13:00:00 16,7 14,6 0,0
14.08.2018 12:00:00 16,6 14,6 0,6
14.08.2018 11:00:00 15,0 13,5 0,8
14.08.2018 10:00:00 15,4 13,1 0,2
14.08.2018 09:00:00 15,2 12,6 0,0
14.08.2018 08:00:00 15,5 12,5 0,0
14.08.2018 07:00:00 14,8 13,2 0,0
14.08.2018 06:00:00 13,3 12,6 0,2
14.08.2018 05:00:00 13,6 12,4 0,0
14.08.2018 04:00:00 15,1 11,8 0,0
14.08.2018 03:00:00 14,7 11,9 0,0
14.08.2018 02:00:00 13,6 12,3 0,0
14.08.2018 01:00:00 13,5 12,3 0,0
14.08.2018 00:00:00 13,8 12,2 0,0
13.08.2018 23:00:00 14,2 12,2 0,0
13.08.2018 22:00:00 14,0 12,6 0,0
13.08.2018 21:00:00 14,3 13,0 0,0
13.08.2018 20:00:00 15,1 13,3 0,0
13.08.2018 19:00:00 15,8 12,9 0,0
13.08.2018 18:00:00 16,4 13,9 0,0
13.08.2018 17:00:00 15,9 14,5 0,0
13.08.2018 16:00:00 16,0 14,9 0,2
13.08.2018 15:00:00 16,4 14,7 0,0
13.08.2018 14:00:00 17,0 13,6 0,0
13.08.2018 13:00:00 17,4 14,0 0,0
13.08.2018 12:00:00 17,2 13,6 0,0
13.08.2018 11:00:00 17,0 13,2 0,0
13.08.2018 10:00:00 15,5 12,3 0,0
13.08.2018 09:00:00 14,7 11,8 0,0

tt = Temperatura
td = dewpoint
rr = precipitazioni

Stazioni seguenti

WeatherPro
AMSI
MeteoEarth